[Date Prev][Date Next][Thread Prev][Thread Next] - [Date Index][Thread Index][Author Index]

2 Line ISS Keps 5-13



ISS
1 25544U 98067A   03133.49763694  .00012568  00000-0  16305-3 0    34
2 25544  51.6315 194.5551 0006123 109.6496 324.1868 15.59233105255592

.

----
Via the sarex mailing list at AMSAT.ORG courtesy of AMSAT-NA.
To unsubscribe, send "unsubscribe sarex" to Majordomo@amsat.org



AMSAT Top AMSAT Home